Vertical_Velocity
-2 -0 -0 -1 2 -2 1 -0 0 -4 0 3 -1 -1 -3 -2 1 3 0 -4 -10 8 5 10 10 1 -4 -4 1 -0 1 1 1 1 3 2 1 -3 -2 -2 -0 -1 -3
-1 -0 -1 0 1 0 -2 0 -2 0 0 -3 -3 -2 1 0 -2 -1 0 -1 10 0 3 -2 -7 -5 2 -1 -1 -3 -2 -4 -3 -5 -1 -4 -4 0 1 -1 -2 -5 -1
-2 -1 -2 -3 2 0 -1 -1 -2 1 -3 -4 2 18 -1 0 -2 0 -6 -3 2 5 2 -1 -3 1 -1 0 -1 -3 -1 -1 -2 -1 1 1 0 -6 -2 -5 -1 -2 -0
-1 -1 -2 -3 3 -1 -1 -2 -2 -2 -0 -1 -4 -5 8 10 3 0 0 1 1 4 2 8 1 -1 -1 1 2 0 -3 -0 0 1 4 3 -5 -4 -6 -2 2 1 1
-2 -0 -1 -3 -2 2 -2 0 -1 1 1 -2 -4 -1 -1 -6 -8 -2 -1 -4 -5 -6 -0 2 0 -1 -4 1 1 -0 -2 -1 2 -4 -11 -8 -2 0 2 0 1 4 3
-2 -2 -1 -1 -2 -1 1 -1 -1 -0 1 -1 -1 -3 -3 -1 -1 -4 -4 -3 -5 -3 -3 1 -1 0 -2 0 2 -0 -2 -3 0 3 1 1 0 -4 -2 8 5 5 3
-3 -3 -1 -1 -1 0 -0 -2 -0 -1 -0 0 2 2 2 2 1 2 3 2 -1 2 2 -2 -2 1 3 -2 -2 -3 -1 5 -3 -2 -1 3 4 1 4 4 2 -1 -2
-2 -3 -3 -2 -1 -1 1 -1 -2 -2 -2 -2 -3 -1 2 0 -0 -2 -3 -4 -4 -3 -2 -3 -3 -2 -3 -4 -4 -6 -1 -4 3 6 3 1 0 0 1 0 -1 0 -1
-1 -1 -3 -2 -1 1 -1 -0 0 0 0 1 1 -1 -3 -4 -2 0 1 0 2 2 3 1 -1 1 6 7 5 3 2 3 1 -2 -3 -2 -1 -1 0 0 0 0 -1
-0 -1 -1 -3 -2 -0 1 2 1 -1 -1 -0 -0 -0 -0 -1 -1 -2 -2 -1 -0 -0 0 1 2 3 1 -1 -2 -3 -2 -1 -2 -4 -3 0 2 2 -0 -1 -3 -0 0
-1 0 -1 -0 -1 -1 -1 1 1 -0 -0 -1 -1 -1 -1 -1 -0 -0 -0 -1 -2 -2 -3 -3 -4 -5 -5 -4 -2 -1 -1 -0 0 2 2 -0 0 -0 0 1 -0 -2 -1
-4 -0 -0 -1 -1 -0 -1 0 1 1 1 1 1 0 0 0 -1 -1 -1 -2 -2 -2 -3 -2 -1 -0 0 -1 -1 -1 -0 -0 -0 0 -1 -0 1 1 1 2 2 -0 -1
-0 -4 1 -1 -0 -1 -1 -1 -2 -1 -1 -0 -0 -0 -0 -0 -1 -1 -1 -2 -2 -1 -2 -2 -1 -0 -3 -3 -2 2 1 -0 0 1 0 -1 0 0 -1 -2 -1 -1 5
2 -0 -2 -0 -1 -2 -0 0 -0 -1 -2 -2 -2 -1 -1 -1 -0 -1 -1 -1 -0 0 -1 0 -0 -1 -2 -1 -2 -2 1 2 2 0 1 0 -1 -1 -1 -4 1 -4 -4
1 1 1 -1 -0 0 -1 -2 -2 -1 -1 -1 -2 0 -1 -3 -1 -2 -1 0 -0 -1 0 0 -0 0 0 2 2 2 3 2 1 1 -1 -1 -2 -2 -4 -3 -3 -0 -0
1 1 1 1 0 1 1 0 -1 0 -0 -1 -1 -1 -4 -1 -3 -2 -2 -1 0 -1 -3 -3 -2 -1 -2 -1 -3 -2 0 5 -2 -2 -2 -1 -1 -4 1 -1 -4 -0 -1
-2 0 1 0 2 3 1 0 -1 -2 -2 -1 -0 -1 -2 1 -1 -1 0 -1 -2 0 2 2 -0 -1 -2 -4 -2 -6 -8 -3 -3 1 3 3 2 1 1 3 4 4 3
-2 1 -2 -2 -1 0 2 1 -1 1 -1 -1 -2 -1 -1 -1 -2 -1 -1 -1 -0 0 0 0 1 -0 -2 -2 2 -2 -3 3 -4 3 1 -0 -4 3 8 9 10 0 -1
-0 0 3 -1 -0 -0 -0 -0 -1 -0 2 -4 6 -1 1 0 -1 -2 -1 -0 -1 1 -1 3 -0 -1 -3 -4 1 0 -1 -0 11 10 17 26 9 2 8 3 -2 -7 -11
2 1 -1 1 -1 -1 -2 -0 1 1 2 -4 -0 4 -1 -2 -0 0 -1 -0 -2 2 -1 -0 0 1 2 2 1 -1 -1 -2 1 -1 0 5 2 4 -1 -3 -8 -2 0
-4 -1 2 -0 2 3 3 -2 0 -0 1 0 -2 11 -2 0 -0 1 -0 -1 2 -1 1 0 2 1 0 -1 0 2 -1 6 3 1 6 3 2 -3 -6 -2 -1 -3 -5
2 -1 5 3 1 -2 5 4 6 3 -3 -1 6 -3 1 1 -0 2 -1 -1 -2 -2 1 -2 -1 2 -2 4 6 8 6 12 -1 -0 2 -4 -5 -3 -5 -3 -2 -3 -5
3 -1 -4 1 9 8 3 11 6 -0 -3 -1 -2 -1 -2 2 2 -1 1 -2 -1 -0 -1 -3 -1 -0 3 8 2 8 8 1 -2 -5 -5 -3 -4 -3 -4 -7 -1 -7 -10
4 -1 -2 -2 -4 7 2 4 3 4 -0 1 -1 0 -0 -3 -2 0 2 3 1 2 2 10 23 7 12 8 5 2 -2 -6 -4 -3 -2 -2 -3 -4 -3 -3 -7 -9 -8
-0 3 3 -2 3 -2 -1 3 8 9 -2 -1 -1 -2 -4 -2 -2 3 4 1 5 7 3 7 7 1 5 5 0 -1 -5 -0 -3 -3 1 -0 -3 -5 -9 -11 -12 -11 -11
-0 1 -0 -1 5 9 8 5 3 2 7 8 -0 -0 -1 -5 3 -1 -1 1 3 5 15 8 2 3 1 -1 -1 -3 -5 -3 -1 0 -0 -0 -6 -10 -10 -12 -12 -8 -7
Height
5751 5751 5751 5750 5748 5746 5744 5743 5742 5740 5738 5737 5738 5739 5740 5743 5748 5750 5757 5761 5766 5768 5770 5774 5781 5788 5796 5801 5804 5809 5812 5816 5819 5822 5825 5829 5830 5834 5835 5836 5837 5838 5839
5752 5753 5752 5752 5751 5749 5748 5747 5746 5744 5743 5742 5742 5745 5747 5749 5753 5758 5761 5765 5769 5774 5778 5784 5789 5795 5798 5802 5805 5809 5812 5816 5821 5823 5825 5828 5830 5834 5834 5834 5833 5835 5836
5755 5756 5755 5755 5754 5753 5752 5752 5751 5751 5751 5749 5749 5750 5753 5754 5758 5763 5767 5770 5773 5777 5781 5785 5789 5795 5800 5803 5806 5811 5815 5818 5821 5822 5823 5827 5832 5833 5831 5832 5831 5832 5833
5757 5758 5759 5759 5758 5757 5757 5757 5756 5757 5757 5757 5757 5757 5757 5761 5765 5768 5771 5774 5777 5780 5785 5789 5793 5796 5800 5804 5808 5811 5814 5818 5820 5822 5824 5831 5832 5831 5829 5829 5828 5827 5827
5761 5760 5761 5762 5762 5761 5761 5761 5762 5762 5762 5763 5763 5764 5765 5767 5769 5772 5777 5781 5783 5786 5789 5794 5797 5801 5805 5808 5811 5813 5817 5819 5823 5827 5827 5825 5827 5827 5826 5824 5821 5822 5821
5764 5763 5763 5764 5765 5765 5765 5765 5766 5767 5767 5768 5769 5770 5772 5775 5777 5779 5781 5783 5788 5791 5793 5796 5800 5804 5808 5811 5813 5813 5817 5818 5819 5820 5822 5822 5823 5821 5819 5817 5818 5816 5814
5766 5766 5766 5766 5767 5768 5769 5769 5770 5771 5772 5774 5775 5777 5779 5781 5783 5784 5787 5789 5792 5794 5797 5800 5804 5807 5809 5810 5813 5813 5815 5818 5819 5819 5819 5818 5817 5815 5813 5813 5812 5809 5806
5767 5768 5768 5769 5770 5771 5772 5773 5774 5775 5777 5779 5780 5782 5784 5785 5787 5789 5791 5795 5797 5800 5802 5805 5808 5810 5811 5812 5814 5815 5814 5814 5813 5814 5813 5812 5811 5810 5809 5807 5805 5802 5799
5768 5769 5770 5771 5773 5774 5776 5777 5778 5779 5781 5782 5783 5785 5786 5788 5790 5791 5793 5795 5797 5799 5802 5804 5806 5808 5809 5811 5811 5810 5809 5809 5809 5808 5808 5808 5806 5804 5802 5799 5796 5792 5788
5769 5770 5772 5773 5775 5777 5779 5780 5781 5781 5782 5783 5785 5786 5788 5790 5791 5793 5794 5796 5798 5800 5801 5802 5804 5804 5805 5805 5804 5804 5805 5806 5805 5804 5803 5801 5799 5797 5793 5790 5786 5782 5777
5770 5771 5773 5774 5776 5778 5780 5781 5783 5783 5784 5785 5786 5787 5788 5790 5790 5792 5793 5795 5796 5797 5798 5799 5799 5800 5800 5800 5801 5801 5800 5800 5799 5798 5796 5793 5791 5788 5785 5780 5775 5769 5764
5770 5772 5773 5774 5776 5778 5779 5781 5783 5784 5784 5786 5787 5788 5788 5789 5790 5790 5791 5792 5793 5794 5795 5795 5796 5797 5797 5796 5796 5796 5795 5794 5793 5792 5789 5787 5784 5780 5775 5770 5765 5760 5753
5769 5771 5773 5775 5776 5778 5779 5781 5782 5784 5784 5785 5786 5787 5788 5788 5789 5790 5790 5790 5791 5792 5792 5793 5793 5793 5793 5792 5791 5792 5791 5789 5788 5785 5782 5778 5774 5770 5765 5759 5753 5747 5740
5767 5769 5772 5774 5775 5777 5778 5780 5781 5782 5783 5783 5784 5785 5785 5786 5786 5787 5787 5787 5788 5789 5789 5789 5789 5789 5788 5788 5788 5787 5785 5783 5780 5777 5774 5770 5765 5760 5754 5747 5741 5734 5726
5763 5766 5769 5771 5773 5775 5776 5777 5778 5779 5780 5781 5781 5782 5783 5782 5783 5783 5784 5784 5784 5784 5784 5784 5784 5784 5784 5783 5782 5780 5778 5775 5772 5768 5763 5758 5752 5746 5740 5734 5727 5721 5713
5756 5759 5763 5765 5768 5769 5771 5772 5773 5774 5775 5776 5776 5777 5778 5778 5778 5778 5779 5779 5779 5779 5778 5778 5778 5777 5776 5775 5772 5770 5768 5765 5760 5755 5750 5745 5739 5731 5725 5718 5712 5706 5697
5750 5753 5755 5758 5761 5763 5765 5766 5767 5767 5769 5770 5770 5771 5772 5773 5773 5773 5773 5773 5773 5773 5772 5772 5770 5769 5767 5765 5762 5759 5754 5751 5746 5741 5736 5731 5724 5717 5711 5703 5696 5688 5679
5743 5746 5748 5750 5753 5755 5757 5758 5759 5761 5762 5763 5763 5764 5765 5766 5766 5766 5766 5766 5765 5765 5764 5763 5762 5760 5758 5755 5752 5747 5742 5737 5733 5728 5723 5716 5710 5703 5696 5688 5679 5670 5661
5735 5739 5742 5745 5746 5748 5749 5751 5752 5754 5755 5754 5757 5757 5758 5758 5758 5758 5758 5757 5757 5757 5755 5754 5752 5750 5747 5744 5740 5736 5731 5724 5717 5711 5709 5704 5696 5688 5679 5672 5663 5654 5644
5728 5731 5733 5735 5737 5739 5740 5742 5744 5745 5746 5746 5749 5751 5749 5750 5750 5749 5749 5748 5748 5747 5745 5744 5741 5739 5736 5732 5728 5723 5718 5713 5707 5701 5694 5687 5679 5673 5664 5655 5646 5639 5630
5719 5722 5724 5726 5728 5730 5732 5734 5734 5735 5736 5738 5740 5743 5741 5741 5740 5740 5739 5738 5737 5735 5733 5731 5729 5726 5723 5718 5714 5708 5703 5698 5692 5686 5679 5673 5665 5658 5650 5643 5634 5623 5611
5708 5711 5714 5717 5718 5719 5722 5723 5724 5724 5727 5730 5731 5731 5732 5731 5731 5730 5729 5727 5726 5724 5722 5718 5714 5711 5707 5703 5698 5695 5689 5684 5679 5672 5665 5659 5653 5646 5639 5629 5619 5608 5597
5698 5700 5703 5706 5709 5710 5711 5716 5716 5715 5717 5720 5720 5720 5721 5721 5720 5720 5719 5717 5715 5714 5710 5706 5703 5698 5695 5691 5685 5680 5675 5671 5666 5660 5654 5649 5642 5634 5624 5615 5604 5592 5579
5689 5690 5693 5694 5697 5702 5704 5705 5707 5707 5708 5710 5710 5710 5710 5710 5710 5709 5708 5707 5705 5701 5698 5693 5690 5684 5681 5678 5673 5669 5663 5660 5655 5650 5644 5636 5628 5620 5611 5599 5588 5576 5564
5677 5679 5681 5683 5688 5690 5692 5695 5697 5698 5698 5699 5699 5699 5698 5697 5697 5695 5694 5691 5689 5687 5685 5682 5677 5673 5669 5665 5661 5657 5653 5650 5645 5638 5632 5624 5614 5605 5595 5584 5572 5558 5544
5665 5667 5669 5673 5674 5678 5681 5684 5685 5686 5688 5687 5687 5686 5685 5683 5681 5679 5677 5677 5677 5674 5672 5668 5665 5662 5658 5654 5651 5648 5644 5639 5634 5628 5619 5610 5601 5593 5582 5570 5558 5544 5531